VIASAT-2 (42740 NORAD) Tracking and Keplerian Element Data

This shows tracking and keplerian element data for the satellite.

Feedback or suggestion? Click here.




ElementValue
Catalog42740
NameVIASAT-2
Epoch Orbit1580
Epoch Day262.14135766
Epoch Year2021
RAAN254.0253
Inclination0.027
Eccentricity1.93E-05
Argument of Perigee248.5741
Mean Anonmoly196.6528
Mean Motion1.00271676
Decay Rate-2.89E-06
L11 42740U 17029A 21262.14135766 -.00000289 00000-0 00000+0 0 9991
L22 42740 0.0270 254.0253 0000193 248.5741 196.6528 1.00271676 15804

Live tracking and technical data element details for VIASAT-2 (NORAD 42740). VIASAT-2 can be tracked NOW for your location showing map with azimuth and elevation plus other details from your city location.

Track the satellite on the map from your city or location and see movement details for azimuth, elevation, latitude, longitude, range, height, and movement on the map or in text.







IsCatalogInMostPopularTable: catalog: 42740, numindb: 577
Update: records affected: 1



GetName: 42740 VIASAT-2

Hit Count: updated at: Sun, 26 Sep 2021 01:05:53 GMT